METEOR 1-17 DEB

Satellite information

Favourite Embed

Satellite Type and Status

DEBRISIN ORBIT

Key statistics

Satellite METEOR 1-17 DEB at a glance.

Uptime

18762

Days in orbit

Revolutions

≈ 14.2

Per day

Orbit

LEO

Low Earth Orbit

Inclination

81.2

Latest

Satellite identification and parameters

Extended collection of information and parameters for METEOR 1-17 DEB.

Object identification

Identified? True

Debris? True

Object name: METEOR 1-17 DEB

International designator: 1974-025D

Object number (NORAD): 57538

Object ID (CCSDS): 57538

Country: COMMONWEALTH OF INDEPENDENT STATES (CIS)

Current information (Y/N): Y

RCS size: SMALL

Orbital parameters

Period: 101.27 minutes

Inclination: 81.1954 deg

SMA: 7196.923 km

Apoapsis: 833.263 km

Periapsis: 804.313 km

RAAN: 209.1472 deg

Eccentricy: 0.00201125

Argument of periapsis: 20.416 deg

Mean anomaly: 339.7816 deg

Mean motion: 14.21944009 rev/day

Mean motion (dot): 0.00015776 rev/day2

B* drag term: 0.0071189227 1/REarth

Two-line elements (TLE)

Creation date: Sept. 3, 2025, 2:21 a.m.

Reference frame: TEME

Reference center: EARTH

Epoch: Sept. 2, 2025, 10:28 p.m. UTC

TLE line 0: 0 METEOR 1-17 DEB

TLE line 1: 1 57538U 74025D 25245.93642388 .00015776 00000-0 71189-2 0 9991

TLE line 2: 2 57538 81.1954 209.1472 0020112 20.4160 339.7816 14.21944009109856

Live tracking on map

Real-time ground track for satellite METEOR 1-17 DEB.

In-orbit conjunctions

A list of the most updated potential collisions computed for object METEOR 1-17 DEB.

Target Orbit TCA Probability of collision Miss distance Type
FENGYUN 1C DEB SSO 2025-01-06 01:06:24 0.000117314 91.0 (m) DEBRIS
CZ-6A DEB LEO 2024-12-14 00:13:48 0.0001301431 658.0 (m) DEBRIS
CZ-6A DEB SSO 2024-11-14 17:13:23 0.0001004254 732.0 (m) DEBRIS
FENGYUN 1C DEB SSO 2024-11-11 13:08:58 0.0004572619 237.0 (m) DEBRIS
COSMOS 1275 DEB LEO 2024-11-09 17:10:42 0.0002976083 398.0 (m) DEBRIS

Associated space launch

The Meteor-1 series was the first series of Soviet meteorological satellites.

METEOR 1-17 DEB was lifted into orbit during the mission ‘Vostok 8A92M | Meteor-1 17 (22L)’, on board a Vostok 8A92M space rocket.

The launch took place on April 24, 1974, 11:50 a.m. from 43/4 (43R).

For more information about the launch, click the button.

Launch to space Vostok 8A92M | Meteor-1 17 (22L)
Vostok 8A92M | Meteor-1 17 (22L)

Agency: N/A

Status: Launch Successful

Launch date: April 24, 1974, 11:50 a.m. UTC

Rocket: Vostok 8A92M

Launch pad: 43/4 (43R)

Location: Plesetsk Cosmodrome, Russian Federation

...

Latest news about this satellite

There are no fresh news available about this satellite. Check back as we update our databases every day.


Newsletter sign-up

Weekly statistics, charts and insights to help you stay on top of the space industry.